Flag for Chile Weather past 2 weeks in Iquique, Chile

Now
70 °F

Sunny.


Feels Like: 70 °F
Forecast: 65 / 73 °F
Wind: 18 mph from Southwest

Location: Iquique / Diego Arac

Current Time: Dec 22, 2014 at 12:24:45 PM

Latest Report: Dec 22, 2014 at 12:00 PM


Visibility: 10 mi

Pressure: 29.98 "Hg

Humidity: 60%

Dew point: 55 °F

Location of IquiqueLocation

Historic Weather in Iquique — Graph

°F

Iquique temperature yesterday

Maximum temperature yesterday: 72 °F (at 12:00 PM)
Minimum temperature yesterday: 66 °F (at 1:00 AM)
Average temperature yesterday: 69 °F

Past Weeks' High & Low Weather Summary

 TemperatureHumidityPressure
High75 °F (Dec 10, 2:00 PM)83% (Dec 12, 12:00 AM)30.09 "Hg (Dec 12, 12:00 AM)
Low61 °F (Dec 16, 7:00 AM)25% (Dec 10, 7:00 PM)29.83 "Hg (Dec 8, 5:00 PM)
Average68 °F67%29.99 "Hg
* Reported Dec 7 11:00 AM — Dec 22 11:00 AM, Iquique, Weather by CustomWeather, © 2014

Note: Actual official high and low records may vary slightly from our data, if they occured in-between our weather recording intervals... More about our weather records

Advertising

Iquique weather history for previous 24 hours

 ConditionsComfort  
Time TempWeatherWind HumidityBarometerVisibility
11:00 AM
Dec 22
70 °FSunny.14 mph57%29.98 "Hg10 mi
10:00 AM68 °FSunny.13 mph60%29.98 "Hg10 mi
9:00 AM68 °FSunny.9 mph60%29.98 "Hg10 mi
8:00 AM63 °FSunny.7 mph68%29.98 "Hg10 mi
7:00 AM64 °FPassing clouds.5 mph64%29.95 "HgN/A
6:00 AM64 °FPassing clouds.3 mph73%29.95 "HgN/A
5:00 AM64 °FPassing clouds.5 mph64%29.95 "HgN/A
4:00 AM63 °FPassing clouds.8 mph73%29.95 "HgN/A
3:00 AM66 °FPassing clouds.10 mph60%29.98 "HgN/A
2:00 AM64 °FPassing clouds.9 mph78%30.01 "HgN/A
1:00 AM66 °FPassing clouds.12 mph73%30.01 "HgN/A
12:00 AM68 °FPassing clouds.13 mph69%30.04 "HgN/A
11:00 PM
Dec 21
68 °FPassing clouds.13 mph69%30.04 "HgN/A
10:00 PM68 °FPassing clouds.14 mph69%30.01 "HgN/A
9:00 PM68 °FPassing clouds.12 mph73%30.01 "HgN/A
8:00 PM68 °FScattered clouds.15 mph73%29.98 "HgN/A
7:00 PM70 °FScattered clouds.20 mph64%29.95 "HgN/A
6:00 PM70 °FScattered clouds.20 mph64%29.95 "HgN/A
5:00 PM72 °FScattered clouds.22 mph61%29.98 "HgN/A
4:00 PM72 °FScattered clouds.22 mph61%29.98 "HgN/A
3:00 PM72 °FScattered clouds.21 mph61%29.98 "HgN/A
2:00 PM72 °FScattered clouds.21 mph61%30.01 "HgN/A
1:00 PM72 °FScattered clouds.20 mph65%30.01 "HgN/A
12:00 PM72 °FSunny.13 mph61%30.01 "Hg10 mi
Weather by CustomWeather, © 2014

See weather overviewHow to use our weather pages